Previsão horária em Allmend

Hoje, 25 Junho, Sexta-feira

Tempo Temperatura Precipitação Vento Pressão Humidade
00:00 +11°C° 0.1 mm 1 m/s 693 mmHg 94%
01:00 +11°C° 0 mm 1 m/s 693 mmHg 93%
02:00 +11°C° 0 mm 1 m/s 693 mmHg 94%
03:00 +10°C° 0 mm 1 m/s 693 mmHg 94%
04:00 +10°C° 0 mm 1 m/s 692 mmHg 95%
05:00 +11°C° 0 mm 1 m/s 693 mmHg 94%
06:00 +11°C° 0 mm 0 m/s 693 mmHg 93%
07:00 +12°C° 0 mm 0 m/s 693 mmHg 92%
08:00 +14°C° 0.2 mm 1 m/s 693 mmHg 89%
09:00 +15°C° 0.2 mm 1 m/s 693 mmHg 86%
10:00 +16°C° 0.2 mm 1 m/s 693 mmHg 82%
11:00 +16°C° 0.5 mm 1 m/s 693 mmHg 80%
12:00 +18°C° 0.5 mm 1 m/s 693 mmHg 77%
13:00 +19°C° 0.5 mm 1 m/s 693 mmHg 74%
14:00 +19°C° 0.6 mm 1 m/s 693 mmHg 76%
15:00 +19°C° 0.6 mm 1 m/s 693 mmHg 77%
16:00 +19°C° 0.6 mm 1 m/s 692 mmHg 78%
17:00 +18°C° 0.4 mm 1 m/s 692 mmHg 82%
18:00 +18°C° 0.4 mm 1 m/s 692 mmHg 85%
19:00 +15°C° 0.4 mm 0 m/s 692 mmHg 89%
20:00 +14°C° 0 mm 0 m/s 692 mmHg 91%
21:00 +14°C° 0 mm 1 m/s 693 mmHg 92%
22:00 +12°C° 0 mm 1 m/s 693 mmHg 93%
23:00 +12°C° 0 mm 1 m/s 692 mmHg 93%

Amanhã, 26 Junho, Sábado

Tempo Temperatura Precipitação Vento Pressão Humidade
00:00 +11°C° 0 mm 1 m/s 692 mmHg 93%
01:00 +11°C° 0 mm 1 m/s 692 mmHg 93%
02:00 +11°C° 0 mm 1 m/s 692 mmHg 93%
03:00 +10°C° 0 mm 1 m/s 691 mmHg 92%
04:00 +10°C° 0 mm 1 m/s 691 mmHg 92%
05:00 +11°C° 0 mm 1 m/s 692 mmHg 90%
06:00 +12°C° 0 mm 0 m/s 692 mmHg 88%
07:00 +13°C° 0 mm 0 m/s 692 mmHg 86%
08:00 +15°C° 0 mm 0 m/s 692 mmHg 78%
09:00 +19°C° 0 mm 1 m/s 692 mmHg 70%
10:00 +21°C° 0 mm 1 m/s 693 mmHg 62%
11:00 +21°C° 0 mm 2 m/s 693 mmHg 59%
12:00 +23°C° 0 mm 2 m/s 692 mmHg 56%
13:00 +23°C° 0 mm 2 m/s 692 mmHg 53%
14:00 +24°C° 0.2 mm 2 m/s 692 mmHg 54%
15:00 +24°C° 0.2 mm 1 m/s 692 mmHg 55%
16:00 +24°C° 0.2 mm 1 m/s 692 mmHg 55%
17:00 +23°C° 0.1 mm 1 m/s 692 mmHg 63%
18:00 +22°C° 0.1 mm 1 m/s 692 mmHg 71%
19:00 +19°C° 0.1 mm 0 m/s 691 mmHg 78%
20:00 +19°C° 0.5 mm 1 m/s 691 mmHg 82%
21:00 +16°C° 0.5 mm 1 m/s 691 mmHg 86%
22:00 +15°C° 0.5 mm 1 m/s 691 mmHg 89%
23:00 +15°C° 0 mm 1 m/s 691 mmHg 89%

Depois de amanhã, 27 Junho, Domingo

Tempo Temperatura Precipitação Vento Pressão Humidade
00:00 +14°C° 0 mm 1 m/s 691 mmHg 89%
01:00 +14°C° 0 mm 1 m/s 691 mmHg 89%
02:00 +14°C° 0 mm 1 m/s 691 mmHg 88%
03:00 +14°C° 0 mm 1 m/s 690 mmHg 88%
04:00 +13°C° 0 mm 1 m/s 690 mmHg 87%
05:00 +15°C° 0 mm 1 m/s 690 mmHg 84%
06:00 +16°C° 0 mm 1 m/s 691 mmHg 81%
07:00 +18°C° 0 mm 1 m/s 691 mmHg 78%
08:00 +20°C° 0 mm 1 m/s 691 mmHg 69%
09:00 +22°C° 0 mm 1 m/s 691 mmHg 61%
10:00 +25°C° 0 mm 1 m/s 691 mmHg 52%
11:00 +25°C° 0 mm 1 m/s 691 mmHg 49%
12:00 +26°C° 0 mm 2 m/s 691 mmHg 47%
13:00 +27°C° 0 mm 2 m/s 691 mmHg 44%
14:00 +27°C° 0.1 mm 2 m/s 691 mmHg 46%
15:00 +27°C° 0.1 mm 1 m/s 691 mmHg 48%
16:00 +27°C° 0.1 mm 1 m/s 690 mmHg 50%
17:00 +26°C° 0.1 mm 1 m/s 690 mmHg 58%
18:00 +24°C° 0.1 mm 1 m/s 690 mmHg 67%
19:00 +23°C° 0.1 mm 1 m/s 690 mmHg 76%
20:00 +21°C° 0 mm 1 m/s 690 mmHg 77%
21:00 +19°C° 0 mm 2 m/s 690 mmHg 79%
22:00 +18°C° 0 mm 2 m/s 689 mmHg 81%
23:00 +17°C° 0.1 mm 2 m/s 690 mmHg 83%

28 Junho, Segunda-feira

Tempo Temperatura Precipitação Vento Pressão Humidade
00:00 +17°C° 0.1 mm 2 m/s 690 mmHg 84%
01:00 +16°C° 0.1 mm 2 m/s 690 mmHg 86%
02:00 +16°C° 0.2 mm 1 m/s 690 mmHg 87%
03:00 +15°C° 0.2 mm 1 m/s 690 mmHg 88%
04:00 +15°C° 0.2 mm 1 m/s 690 mmHg 88%
05:00 +16°C° 0 mm 1 m/s 690 mmHg 87%
06:00 +18°C° 0 mm 1 m/s 690 mmHg 85%
07:00 +17°C° 0 mm 0 m/s 690 mmHg 83%
08:00 +21°C° 0 mm 1 m/s 690 mmHg 75%
09:00 +23°C° 0 mm 1 m/s 690 mmHg 67%
10:00 +25°C° 0 mm 1 m/s 690 mmHg 60%
11:00 +26°C° 0 mm 2 m/s 690 mmHg 57%
12:00 +27°C° 0 mm 2 m/s 690 mmHg 55%
13:00 +28°C° 0 mm 2 m/s 690 mmHg 52%
14:00 +27°C° 0.9 mm 2 m/s 689 mmHg 58%
15:00 +26°C° 0.9 mm 2 m/s 689 mmHg 64%
16:00 +25°C° 0.9 mm 2 m/s 688 mmHg 71%
17:00 +23°C° 1.2 mm 2 m/s 689 mmHg 78%
18:00 +20°C° 1.2 mm 2 m/s 689 mmHg 86%
19:00 +18°C° 1.2 mm 2 m/s 689 mmHg 93%
20:00 +17°C° 1.9 mm 2 m/s 689 mmHg 94%
21:00 +18°C° 1.9 mm 1 m/s 690 mmHg 95%
22:00 +16°C° 1.9 mm 1 m/s 690 mmHg 96%
23:00 +15°C° 0.2 mm 1 m/s 690 mmHg 96%

29 Junho, Terça-feira

Tempo Temperatura Precipitação Vento Pressão Humidade
00:00 +14°C° 0.2 mm 0 m/s 690 mmHg 96%
01:00 +14°C° 0.2 mm 0 m/s 690 mmHg 96%
02:00 +14°C° 0.2 mm 0 m/s 689 mmHg 97%
03:00 +14°C° 0.2 mm 0 m/s 689 mmHg 97%
04:00 +14°C° 0.2 mm 0 m/s 689 mmHg 98%
05:00 +14°C° 0.5 mm 0 m/s 689 mmHg 98%
06:00 +15°C° 0.5 mm 1 m/s 689 mmHg 98%
07:00 +15°C° 0.5 mm 1 m/s 689 mmHg 98%
08:00 +15°C° 0.9 mm 1 m/s 689 mmHg 97%
09:00 +14°C° 0.9 mm 1 m/s 689 mmHg 97%
10:00 +14°C° 0.9 mm 1 m/s 689 mmHg 97%
11:00 +14°C° 0.5 mm 1 m/s 689 mmHg 96%
12:00 +14°C° 0.5 mm 1 m/s 690 mmHg 96%
13:00 +14°C° 0.5 mm 1 m/s 690 mmHg 95%
14:00 +13°C° 2.4 mm 1 m/s 690 mmHg 96%
15:00 +13°C° 2.4 mm 1 m/s 690 mmHg 97%
16:00 +13°C° 2.4 mm 1 m/s 690 mmHg 98%
17:00 +12°C° 4.3 mm 1 m/s 690 mmHg 98%
18:00 +12°C° 4.3 mm 1 m/s 690 mmHg 98%
19:00 +11°C° 4.3 mm 1 m/s 691 mmHg 97%
20:00 +11°C° 0.6 mm 1 m/s 691 mmHg 96%
21:00 +11°C° 0.6 mm 1 m/s 691 mmHg 95%
22:00 +10°C° 0.6 mm 1 m/s 691 mmHg 93%
23:00 +10°C° 0 mm 1 m/s 691 mmHg 92%

30 Junho, Quarta-feira

Tempo Temperatura Precipitação Vento Pressão Humidade
00:00 +10°C° 0 mm 1 m/s 690 mmHg 91%
01:00 +10°C° 0 mm 1 m/s 690 mmHg 90%
02:00 +10°C° 0 mm 1 m/s 690 mmHg 90%
03:00 +9°C° 0 mm 1 m/s 690 mmHg 91%
04:00 +8°C° 0 mm 0 m/s 689 mmHg 91%
05:00 +9°C° 0 mm 0 m/s 689 mmHg 89%
06:00 +10°C° 0 mm 0 m/s 689 mmHg 87%
07:00 +11°C° 0 mm 0 m/s 689 mmHg 85%
08:00 +13°C° 0 mm 0 m/s 689 mmHg 77%
09:00 +16°C° 0 mm 1 m/s 689 mmHg 69%
10:00 +19°C° 0 mm 1 m/s 690 mmHg 61%
11:00 +19°C° 0 mm 1 m/s 689 mmHg 60%
12:00 +20°C° 0 mm 1 m/s 689 mmHg 59%
13:00 +20°C° 0 mm 1 m/s 689 mmHg 59%
14:00 +19°C° 0.3 mm 1 m/s 689 mmHg 66%
15:00 +18°C° 0.3 mm 1 m/s 688 mmHg 73%
16:00 +16°C° 0.3 mm 1 m/s 688 mmHg 81%
17:00 +15°C° 2.2 mm 1 m/s 688 mmHg 86%
18:00 +14°C° 2.2 mm 1 m/s 689 mmHg 91%
19:00 +13°C° 2.2 mm 1 m/s 689 mmHg 96%
20:00 +13°C° 3.2 mm 1 m/s 689 mmHg 97%
21:00 +12°C° 3.2 mm 1 m/s 689 mmHg 97%
22:00 +12°C° 3.2 mm 1 m/s 690 mmHg 98%
23:00 +12°C° 2.4 mm 1 m/s 690 mmHg 98%
Mostrar mais